Theta_e
290 291 291 292 292 292 292 292 292 291 291 291 292 291 291 290 290 290 290 290 289 289 288 289 289 289 289 289 288 288 288 289 293 285 286 285 284 283 281 281 282 282 281
289 289 289 289 289 289 290 292 292 292 292 290 290 290 290 290 289 289 289 289 288 288 288 287 288 287 288 288 287 287 287 287 289 286 283 282 282 281 281 280 282 281 280
288 289 289 288 287 287 286 288 290 291 291 291 290 289 289 289 289 288 289 289 288 288 288 288 287 286 286 286 286 286 286 285 285 287 283 281 280 280 279 279 280 280 280
287 288 288 288 288 286 285 285 286 288 290 290 290 289 289 288 288 288 287 288 288 287 288 287 287 287 286 286 285 285 285 284 283 283 283 280 280 279 279 281 281 281 281
285 286 287 287 287 285 284 284 284 285 286 289 289 289 288 288 287 287 287 287 287 287 287 287 286 286 286 287 286 285 284 284 283 282 282 281 280 279 280 281 281 281 282
284 284 285 286 285 283 282 283 284 284 284 285 288 288 288 288 287 287 287 286 286 286 286 286 285 285 285 285 285 285 286 284 283 282 281 281 281 281 281 280 280 281 284
283 282 282 283 282 282 281 282 284 284 284 284 285 287 287 287 287 287 287 287 286 286 286 286 285 284 283 284 284 284 283 283 285 283 282 281 281 281 281 280 280 281 282
283 282 282 282 281 280 279 280 283 283 283 284 284 285 286 287 287 287 287 287 287 286 286 286 285 284 282 283 283 283 282 281 282 281 282 281 281 281 280 280 280 281 279
282 280 280 280 279 277 277 278 279 280 282 283 283 283 285 286 286 286 287 287 287 286 286 285 285 284 282 282 283 282 281 280 280 279 279 280 280 280 279 279 279 278 278
279 279 278 278 276 275 275 275 276 278 280 281 282 282 283 284 285 286 286 287 287 287 286 284 284 283 282 282 282 282 281 280 279 278 278 280 279 279 279 279 278 277 277
277 276 275 275 274 273 272 273 274 275 276 278 280 281 282 283 283 285 285 286 287 287 287 284 283 282 283 282 283 282 282 280 279 278 279 279 278 279 279 278 276 275 276
273 272 271 271 270 270 270 270 271 272 273 275 278 281 282 282 282 283 284 285 286 287 287 285 282 281 282 282 283 282 282 280 279 280 279 279 278 277 276 274 274 274 274
269 268 267 267 267 267 267 268 269 270 272 274 277 280 282 282 283 282 283 284 285 286 286 284 282 281 282 282 283 282 282 280 280 279 279 278 277 276 274 273 272 272 272
265 265 264 264 264 264 265 265 267 268 270 272 275 279 281 282 282 281 281 282 284 284 286 283 281 280 282 281 282 283 281 278 279 278 278 277 275 273 272 272 271 270 270
263 263 263 263 263 263 263 264 265 266 268 270 272 276 280 281 282 281 280 280 282 284 283 280 280 280 281 282 282 281 279 276 277 277 276 273 272 272 272 271 271 270 270
263 263 263 263 263 263 263 263 264 265 267 269 270 273 275 277 281 281 282 282 282 283 280 280 280 280 281 282 282 279 277 276 276 274 273 272 272 271 270 270 270 269 270
261 261 262 262 262 263 263 263 264 264 265 267 269 272 274 278 280 282 282 283 282 283 281 280 281 280 281 282 280 276 276 276 274 273 272 272 271 270 270 269 269 269 269
260 261 261 262 262 262 262 263 263 264 264 266 268 272 274 280 283 284 284 283 282 283 281 280 281 281 281 279 277 276 275 273 273 272 271 270 270 269 269 269 268 268 268
261 262 262 262 262 263 263 263 263 264 264 265 267 269 273 278 279 280 284 283 282 282 282 280 280 280 279 279 276 274 273 272 271 270 269 268 268 268 268 268 268 267 267
262 262 263 263 263 263 263 264 264 265 266 267 268 271 275 276 278 280 284 282 282 283 282 279 279 277 276 275 274 272 271 270 269 268 267 267 267 267 267 266 267 267 266
262 263 263 264 264 264 264 265 265 265 266 267 269 273 275 276 278 279 283 282 282 283 278 275 274 274 274 272 271 270 269 268 267 266 266 266 267 266 266 266 266 265 266
263 263 263 264 265 266 267 267 266 266 267 270 272 273 274 275 277 279 281 279 276 275 274 274 273 273 271 270 269 268 267 266 266 267 267 267 267 266 265 265 265 265 265
262 263 264 265 265 266 268 269 269 269 271 271 271 272 272 272 271 271 271 271 272 271 272 272 270 269 268 268 268 268 267 266 267 268 267 266 265 265 265 265 265 264 265
261 262 263 264 264 264 265 266 266 266 267 267 266 266 266 266 265 265 266 267 268 268 268 268 268 268 267 267 267 267 269 269 269 268 268 267 265 265 265 265 265 265 264
260 261 262 263 263 263 264 264 264 265 265 264 264 264 264 263 263 264 264 264 265 265 266 267 267 267 268 268 269 269 268 268 268 267 266 266 266 266 265 265 265 264 265
259 260 260 261 262 262 262 262 263 263 263 263 263 262 262 262 262 262 262 263 263 263 264 266 266 267 268 267 267 267 267 267 266 265 265 265 266 266 265 266 266 265 265
Wind_Speed
26 25 23 25 26 25 23 19 16 17 18 21 25 25 28 32 34 37 39 40 43 37 37 37 38 37 37 33 28 25 21 16 8 8 13 15 19 17 16 14 11 9 7
23 22 23 24 25 27 26 26 25 22 20 21 22 24 28 33 33 36 38 39 41 41 36 34 34 35 35 35 34 31 28 23 13 13 16 17 16 18 16 14 13 12 8
21 21 23 26 29 30 32 30 31 26 23 22 24 25 26 31 36 38 39 38 39 42 43 46 41 38 38 33 33 32 30 26 20 13 12 15 12 17 15 14 14 11 10
19 19 20 21 24 28 35 38 36 34 27 22 22 28 27 30 34 35 37 40 40 40 38 42 47 50 47 42 39 34 33 30 24 18 15 16 16 13 15 15 15 12 9
19 19 19 19 22 26 30 35 38 38 35 30 25 26 29 30 34 35 35 37 38 37 42 43 47 49 53 55 46 40 36 30 25 21 17 15 18 15 21 16 14 9 7
24 23 21 18 19 25 30 31 33 35 35 35 30 26 29 30 33 36 36 35 36 38 41 40 42 44 50 53 54 48 54 44 33 27 23 21 23 21 18 16 11 6 4
26 29 29 26 24 24 28 28 27 29 29 31 31 26 28 32 34 34 37 38 35 38 40 39 38 41 45 46 43 38 40 44 46 44 32 29 23 25 21 17 13 10 6
22 23 23 24 28 28 27 28 28 28 28 28 30 31 30 31 29 32 34 39 37 37 40 42 42 41 44 47 43 38 37 39 38 33 31 30 25 27 22 17 16 12 7
24 25 24 23 27 32 34 33 31 30 32 33 32 31 30 33 27 30 32 32 35 38 37 40 41 42 43 45 44 42 37 35 32 27 23 20 20 21 22 19 17 14 7
26 27 27 26 27 30 32 35 39 35 35 33 35 32 32 37 32 29 28 30 31 34 34 36 43 41 38 46 46 41 37 38 35 29 24 22 23 22 21 19 17 17 10
27 28 30 31 32 33 34 36 36 38 38 40 39 38 34 34 35 30 27 32 32 31 32 32 35 40 38 42 45 41 44 35 36 37 31 27 27 23 24 20 16 16 14
29 32 35 35 35 36 36 36 36 35 36 37 37 38 35 33 33 32 32 33 37 35 32 30 31 35 40 40 44 37 34 34 35 32 31 30 28 25 21 19 17 14 12
36 37 37 36 35 35 35 35 32 32 32 33 31 31 33 31 29 30 33 33 35 41 33 33 28 31 35 37 44 40 38 37 36 34 31 28 27 24 20 18 14 12 11
38 38 36 35 35 34 33 32 31 30 29 29 28 28 30 28 28 26 25 29 34 34 34 32 30 30 33 35 38 41 39 34 35 33 29 26 24 22 21 19 15 12 9
36 36 35 33 33 33 32 32 31 33 33 32 32 31 27 26 28 24 24 24 27 30 26 26 27 26 28 33 36 36 34 29 27 25 26 27 24 22 18 16 13 12 9
34 33 32 33 33 33 33 34 35 40 41 43 47 47 45 47 40 34 29 29 30 28 28 26 24 27 29 31 31 32 32 34 30 27 26 26 25 23 21 18 14 14 11
32 32 32 32 31 31 31 30 25 32 36 39 39 42 46 47 45 34 32 30 29 29 27 25 23 26 27 29 27 31 33 35 36 33 31 29 26 22 22 18 14 11 8
34 35 33 31 30 30 30 30 30 26 20 27 32 31 34 32 27 29 32 27 24 29 28 24 23 24 26 26 26 25 27 29 31 30 29 28 26 24 20 18 15 13 9
34 32 32 32 31 32 31 31 30 28 26 27 28 30 29 20 24 27 29 25 20 21 25 24 23 23 24 25 27 26 29 28 28 28 27 27 24 22 18 16 14 12 10
30 31 33 31 30 29 28 26 25 24 23 22 23 24 21 17 17 18 22 22 19 17 21 22 21 22 26 24 25 28 27 27 27 26 25 26 26 22 17 16 12 10 9
29 30 30 29 27 27 26 24 23 22 21 21 23 23 19 19 17 16 11 18 15 11 18 23 25 28 25 24 25 26 28 27 27 27 27 26 26 22 16 13 11 11 7
26 26 26 25 26 25 23 21 20 20 20 20 19 18 19 17 15 14 8 9 14 19 22 28 30 30 31 31 29 28 27 28 28 32 30 29 25 19 17 13 11 9 7
23 24 23 22 21 22 19 17 13 15 14 14 13 12 9 5 5 7 13 17 22 25 29 30 29 27 27 28 27 29 31 32 35 34 31 28 24 19 18 13 11 8 7
22 21 20 19 19 20 19 18 16 15 14 13 13 11 11 10 10 10 14 16 19 20 22 26 26 27 28 27 27 29 32 33 31 28 27 26 22 19 16 13 12 10 8
20 20 19 18 17 18 18 18 18 17 15 14 13 12 12 12 13 12 14 15 18 19 20 22 24 26 28 30 29 27 26 26 26 25 24 22 19 17 16 13 10 8 10
19 19 19 18 18 17 17 17 18 18 17 16 15 15 14 15 15 17 19 21 23 25 27 29 29 30 29 27 26 25 25 24 24 22 20 18 16 14 12 10 10 10 10
Wind_Direction
14 9 12 9 9 10 6 344 320 305 288 276 270 254 238 231 224 221 223 220 216 216 218 217 218 217 214 210 206 205 204 197 185 185 185 187 192 204 222 227 242 244 245
3 359 7 6 3 3 2 357 353 337 319 289 276 260 248 240 231 226 224 222 217 210 213 217 218 216 212 210 206 202 201 201 192 175 187 193 200 207 214 223 234 237 234
358 355 356 359 1 0 354 351 349 347 335 314 289 265 255 247 239 232 226 229 227 219 210 212 213 214 214 208 206 198 199 202 200 186 174 194 196 203 212 219 223 235 239
349 350 353 354 349 349 352 352 351 346 336 315 292 283 266 255 247 239 231 228 225 225 222 216 212 214 213 210 207 205 196 194 194 192 189 187 195 195 200 206 210 214 215
339 340 341 340 340 342 345 343 344 344 340 334 323 291 274 265 254 242 235 232 228 226 222 219 219 217 218 217 209 204 199 190 189 191 196 194 198 188 199 201 202 207 223
326 327 327 327 325 332 335 334 332 334 337 332 326 304 283 266 256 249 240 235 232 227 226 223 219 216 216 216 215 213 214 195 191 190 196 200 203 202 188 188 188 191 179
312 316 320 321 319 321 323 323 319 319 320 319 316 304 287 274 265 254 243 234 233 231 229 225 219 216 213 212 210 207 208 209 213 203 196 200 195 197 187 183 189 196 195
296 303 307 310 313 316 315 313 308 309 307 304 302 301 292 282 271 262 250 240 235 237 235 228 220 214 211 206 203 203 206 205 205 206 210 207 208 195 189 191 186 190 223
290 298 299 300 303 307 308 308 304 301 298 296 293 292 286 282 272 265 256 244 241 239 238 235 228 218 212 204 200 199 199 204 204 204 206 204 194 182 178 170 175 176 206
295 293 291 290 292 295 297 297 298 296 291 288 285 282 281 278 273 261 257 250 246 240 238 239 232 224 214 203 202 200 199 195 186 185 189 187 184 182 180 189 182 186 188
298 294 292 289 288 289 290 289 289 289 289 288 285 279 274 269 269 263 251 251 246 242 234 229 227 221 214 209 206 204 206 191 182 183 184 186 183 186 184 190 200 194 192
300 294 290 289 289 288 287 285 284 282 281 278 278 279 275 271 263 259 250 241 246 242 236 228 225 216 210 209 208 209 204 191 181 183 183 184 179 178 179 195 199 197 204
299 294 294 294 291 288 285 283 282 280 274 273 272 270 270 267 262 254 249 245 243 244 235 226 216 211 210 208 207 201 196 188 183 182 185 181 179 174 177 182 187 192 205
297 297 298 296 294 290 284 280 278 274 273 271 270 267 267 266 258 252 244 241 242 243 235 215 206 202 200 203 203 199 197 188 188 186 179 170 160 162 177 179 179 189 202
296 295 295 293 291 289 283 279 276 272 270 273 271 273 269 262 258 256 247 237 232 230 208 189 185 188 200 201 199 187 185 178 178 176 166 151 153 167 178 178 177 178 196
295 294 292 291 290 287 286 284 278 278 277 273 271 267 267 267 265 261 259 250 245 233 188 191 189 187 197 198 191 178 174 168 169 162 157 155 160 167 169 179 177 186 195
295 294 292 290 287 285 285 284 287 287 284 281 275 271 266 266 257 255 251 254 245 238 201 199 196 191 193 195 185 171 171 172 164 167 163 162 162 164 168 174 176 178 192
292 290 289 286 285 284 282 282 282 284 288 290 289 286 292 272 254 259 239 236 237 236 200 200 199 190 187 180 175 172 165 160 166 163 160 159 161 162 162 165 170 176 179
297 293 291 289 286 283 281 279 278 279 280 283 289 292 288 280 283 272 249 212 227 233 196 195 193 185 174 177 166 163 160 162 158 154 153 153 156 157 160 165 172 177 177
302 298 295 292 289 286 282 280 279 278 279 283 282 279 277 287 285 281 229 202 219 235 187 180 172 156 157 164 165 158 154 152 151 149 150 154 162 163 163 170 173 174 190
304 302 300 298 293 289 284 279 278 279 278 280 281 286 291 287 282 286 217 192 211 217 157 144 142 148 159 160 158 154 152 150 150 150 153 160 169 164 169 171 175 188 199
311 307 307 305 304 302 297 283 275 277 278 279 289 303 304 300 295 276 177 137 123 136 143 149 156 165 166 164 161 155 152 151 154 159 163 169 170 172 176 177 184 192 207
318 317 318 321 325 326 334 341 310 302 310 325 327 329 341 2 41 82 106 115 132 143 157 164 161 156 164 168 170 168 159 158 165 168 166 168 171 176 179 180 189 202 220
328 331 334 338 344 347 349 351 355 359 3 4 6 11 20 34 59 72 96 115 132 142 154 160 163 162 161 159 163 165 163 163 165 167 170 173 175 178 182 190 201 217 239
341 341 344 348 354 358 358 0 2 5 12 19 23 29 40 55 64 72 87 100 112 123 133 140 145 147 146 144 146 148 152 157 162 168 173 176 178 181 188 202 217 236 247
357 358 355 356 2 7 11 10 8 10 17 24 33 42 52 60 69 76 85 98 106 113 122 127 130 132 132 136 143 152 156 160 166 171 174 178 181 188 201 218 234 245 257